Weather reports worldwide

Advertisment
Bonn-Roleber, Germany (10519): temperature & dewpoint: 20.09.2018 05:00:00 - 26.09.2018 05:00:00 (CEST)Bonn-Roleber, Germany (10519): temperature 5cm & temperature -5cm: 20.09.2018 05:00:00 - 26.09.2018 05:00:00 (CEST)Bonn-Roleber, Germany (10519): temperature -20cm & temperature -100cm: 20.09.2018 05:00:00 - 26.09.2018 05:00:00 (CEST)Bonn-Roleber, Germany (10519): wind speed & gusts: 20.09.2018 05:00:00 - 26.09.2018 05:00:00 (CEST)Bonn-Roleber, Germany (10519): wind direction: 20.09.2018 05:00:00 - 26.09.2018 05:00:00 (CEST)Bonn-Roleber, Germany (10519): reduced air pressure: 20.09.2018 05:00:00 - 26.09.2018 05:00:00 (CEST)Bonn-Roleber, Germany (10519): visibility: 20.09.2018 05:00:00 - 26.09.2018 05:00:00 (CEST)Bonn-Roleber, Germany (10519): sunshine duration: 20.09.2018 05:00:00 - 26.09.2018 05:00:00 (CEST)Bonn-Roleber, Germany (10519): precipitation: 20.09.2018 05:00:00 - 26.09.2018 05:00:00 (CEST)
Date & Time tt [°C] td [°C] tt 5cm [°C] tt -5cm [°C] tt -20cm [°C] tt -100cm [°C] ff [km/h] ff [kn] fx [km/h] fx [kn] dd ppp [hPa] vv [km] sd [min] rr [mm]
26.09.2018 05:00:00 4,2 2,4 1,4 7,6 12,3 17,2 3 2 14 7 NNE 1036,2 50 0 0,0
26.09.2018 04:00:00 5,5 2,8 3,6 7,9 12,6 17,2 9 5 16 9 E 1035,9 57 0 0,0
26.09.2018 03:00:00 5,0 2,7 2,6 8,2 12,9 17,3 5 3 10 5 ESE 1036,6 57 0 0,0
26.09.2018 02:00:00 5,4 2,9 2,4 8,7 13,2 17,3 5 3 9 5 E 1036,7 65 0 0,0
26.09.2018 01:00:00 5,4 3,5 3,7 9,2 13,5 17,3 5 3 8 5 SE 1037,3 51 0 0,0
26.09.2018 00:00:00 7,8 4,4 4,9 9,7 13,8 17,3 8 4 15 8 SSW 1037,4 48 0 0,0
25.09.2018 23:00:00 7,5 3,7 4,5 10,3 14,2 17,3 9 5 13 7 SSE 1038,0 70 0 0,0
25.09.2018 22:00:00 7,8 3,2 4,6 11,0 14,5 17,3 8 4 10 5 SE 1038,5 70 0 0,0
25.09.2018 21:00:00 8,3 4,4 5,7 11,9 14,8 17,4 7 4 8 5 SE 1038,4 60 0 0,0
25.09.2018 20:00:00 8,8 5,7 6,2 13,1 15,0 17,4 4 2 6 3 ESE 1038,0 65 4 0,0
25.09.2018 19:00:00 12,4 5,3 9,5 14,5 15,2 17,4 4 2 10 6 SSE 1037,4 70 50 0,0
25.09.2018 18:00:00 14,0 3,0 12,3 16,1 15,1 17,4 7 4 14 8 SE 1037,4 70 60 0,0
25.09.2018 17:00:00 15,1 2,0 16,1 17,6 14,9 17,4 8 4 17 9 E 1037,6 70 60 0,0
25.09.2018 16:00:00 14,9 2,6 16,3 18,8 14,5 17,5 9 5 19 10 SE 1038,3 64 60 0,0
25.09.2018 15:00:00 14,4 2,0 17,0 18,8 13,9 17,5 6 3 15 8 NE 1039,2 49 60 0,0
25.09.2018 14:00:00 13,5 2,5 17,0 18,9 13,2 17,5 6 3 15 8 NE 1039,7 36 59 0,0
25.09.2018 13:00:00 12,6 4,6 17,3 17,9 12,5 17,5 6 3 13 7 NE 1039,8 31 60 0,0
25.09.2018 12:00:00 11,8 5,5 16,5 16,0 11,9 17,5 7 4 11 6 NNE 1040,1 28 60 0,0
25.09.2018 11:00:00 10,3 6,1 12,8 13,3 11,5 17,5 4 2 8 5 WNW 1040,2 18 60 0,0
25.09.2018 10:00:00 9,2 6,1 9,2 10,4 11,4 17,5 3 2 10 5 WNW 1039,8 21 60 0,0
25.09.2018 09:00:00 6,8 5,6 6,3 7,4 11,5 17,6 5 3 9 5 SSW 1039,3 12 60 0,0
25.09.2018 08:00:00 4,3 3,9 2,4 7,0 11,8 17,6 3 1 11 6 S 1039,1 8 1 0,0
25.09.2018 07:00:00 4,4 4,1 2,4 7,2 12,0 17,6 6 4 11 6 SSW 1038,6 5 0 0,0
25.09.2018 06:00:00 4,2 3,9 2,3 7,5 12,3 17,6 4 2 10 5 SSE 1038,4 3,3 0 0,0
25.09.2018 05:00:00 4,7 4,3 2,2 7,9 12,6 17,6 4 2 8 4 W 1038,5 10 0 0,0
25.09.2018 04:00:00 4,9 4,4 2,3 8,3 12,8 17,6 5 3 6 4 NW 1038,4 15 0 0,0
25.09.2018 03:00:00 5,7 5,0 3,0 8,9 13,1 17,7 4 2 7 4 W 1038,2 16 0 0,0
25.09.2018 02:00:00 7,1 5,8 4,4 9,5 13,3 17,7 4 2 7 4 WSW 1038,1 24 0 0,0
25.09.2018 01:00:00 7,3 5,9 5,1 10,2 13,5 17,7 4 2 8 4 W 1037,8 34 0 0,0
25.09.2018 00:00:00 8,4 6,5 7,6 10,5 13,7 17,7 5 3 9 5 W 1037,6 38 0 0,0
24.09.2018 23:00:00 8,4 6,1 7,0 10,4 13,9 17,7 4 2 8 4 W 1037,0 39 0 0,0
24.09.2018 22:00:00 7,0 6,0 4,7 10,7 14,2 17,7 4 2 10 5 WSW 1036,7 30 0 0,0
24.09.2018 21:00:00 9,1 6,3 7,2 11,4 14,4 17,8 5 3 11 6 WNW 1035,9 57 0 0,0
24.09.2018 20:00:00 9,9 5,9 8,2 11,9 14,6 17,8 6 3 22 12 W 1034,9 58 0 0,0
24.09.2018 19:00:00 11,3 4,2 10,3 13,2 14,8 17,8 12 7 33 18 WNW 1034,3 68 17 0,0
24.09.2018 18:00:00 12,6 4,6 12,2 14,0 14,8 17,8 16 9 31 17 WNW 1034,0 62 32 0,0
24.09.2018 17:00:00 11,2 6,8 10,8 14,8 14,7 17,8 11 6 27 15 WNW 1034,2 70 4 0,1
24.09.2018 16:00:00 13,8 5,9 14,8 16,2 14,5 17,8 11 6 32 18 WNW 1033,7 55 47 0,0
24.09.2018 15:00:00 12,8 5,7 13,3 16,0 14,2 17,9 12 6 27 15 WNW 1034,0 67 18 0,0
24.09.2018 14:00:00 13,1 6,4 14,7 16,8 13,8 17,9 11 6 29 16 W 1034,1 70 43 0,0
24.09.2018 13:00:00 12,3 6,2 13,4 14,7 13,5 17,9 14 8 27 15 WNW 1034,0 53 6 0,0
24.09.2018 12:00:00 13,1 6,5 15,6 15,8 13,0 17,9 11 6 25 13 NW 1034,0 26 54 0,0
24.09.2018 11:00:00 11,1 7,0 11,8 13,7 12,7 17,9 10 6 24 13 WNW 1033,8 37 50 0,0
24.09.2018 10:00:00 9,8 6,9 9,8 11,4 12,6 17,9 9 5 20 11 WNW 1033,0 27 60 0,0
24.09.2018 09:00:00 7,8 5,9 7,4 8,9 12,8 17,9 6 4 13 7 W 1032,4 16 45 0,0
24.09.2018 08:00:00 6,4 5,6 5,1 8,6 13,0 18,0 6 3 12 6 W 1031,5 10 4 0,0
24.09.2018 07:00:00 6,2 5,6 4,5 8,9 13,3 18,0 4 2 16 8 WNW 1030,7 6 0 0,0
24.09.2018 06:00:00 6,9 6,1 5,8 9,3 13,5 18,0 7 4 15 8 W 1029,7 7 0 0,0
24.09.2018 05:00:00 7,3 6,6 6,4 9,8 13,7 18,0 6 4 18 10 WNW 1029,0 4,1 0 0,0
24.09.2018 04:00:00 7,4 6,8 6,5 10,2 13,9 18,0 8 5 15 8 W 1028,4 4,8 0 0,0
24.09.2018 03:00:00 8,0 7,2 7,0 11,0 14,0 18,0 6 4 16 9 W 1027,3 4,3 0 0,0
24.09.2018 02:00:00 8,6 7,9 8,4 11,3 14,2 18,0 9 5 19 10 WNW 1026,3 4,2 0 0,0
24.09.2018 01:00:00 8,6 7,8 8,6 11,4 14,3 18,1 11 6 21 11 WNW 1025,0 7 0 0,0
24.09.2018 00:00:00 8,6 7,9 8,5 11,5 14,5 18,1 10 5 22 12 WNW 1023,5 8 0 0,0
23.09.2018 23:00:00 8,5 7,8 8,5 11,5 14,6 18,1 11 6 34 18 WNW 1022,2 12 0 0,4
23.09.2018 22:00:00 8,5 7,8 8,4 11,7 14,8 18,1 9 5 24 13 NW 1020,4 7 0 0,3
23.09.2018 21:00:00 8,4 7,4 8,3 12,0 15,1 18,1 9 5 29 16 NW 1018,8 7 0 0,4
23.09.2018 20:00:00 8,9 7,6 8,6 12,4 15,2 18,1 16 8 38 21 NNW 1016,3 8 0 1,0
23.09.2018 19:00:00 9,9 8,5 9,7 13,1 15,4 18,1 13 7 38 20 NNW 1013,6 20 0 0,0
23.09.2018 18:00:00 10,4 9,2 10,3 13,6 15,5 18,1 14 7 37 20 NNW 1010,9 28 0 0,0
23.09.2018 17:00:00 11,1 10,4 11,2 14,2 15,6 18,1 16 8 29 16 NW 1008,8 46 0 0,5
23.09.2018 16:00:00 11,5 11,2 11,9 14,0 15,7 18,1 11 6 40 21 NW 1008,2 4,9 0 11,4
23.09.2018 15:00:00 12,2 12,0 12,4 14,7 15,8 18,2 9 5 29 16 NW 1006,1 0,5 0 13,7
23.09.2018 14:00:00 13,2 12,7 13,9 15,8 15,7 18,2 10 5 17 9 NNW 1005,7 3,6 0 7,1
23.09.2018 13:00:00 14,0 12,7 14,6 16,3 15,4 18,3 4 2 6 3 SSW 1007,3 2,8 0 0,1
23.09.2018 12:00:00 13,7 12,7 14,0 15,6 15,3 18,3 3 2 7 4 SSW 1008,9 7 0 0,2
23.09.2018 11:00:00 13,0 12,2 13,6 14,7 15,2 18,3 5 3 8 4 SSW 1010,1 2,8 0 0,4
23.09.2018 10:00:00 12,3 11,6 12,9 14,0 15,1 18,3 4 2 9 5 E 1010,6 3,1 0 0,6
23.09.2018 09:00:00 11,5 11,0 11,8 13,3 15,1 18,3 5 3 9 5 E 1010,9 2,8 0 0,4
23.09.2018 08:00:00 11,0 10,5 11,0 12,9 15,2 18,3 6 3 12 7 E 1011,6 7 0 0,4
23.09.2018 07:00:00 10,7 10,2 10,7 12,9 15,3 18,3 8 5 14 7 ESE 1012,2 3,3 0 1,5
23.09.2018 06:00:00 10,5 9,9 10,6 12,9 15,4 18,3 8 4 13 7 ESE 1013,0 2,0 0 1,7
23.09.2018 05:00:00 10,6 9,9 10,6 13,1 15,5 18,3 6 3 13 7 ESE 1014,3 3,5 0 0,7
23.09.2018 04:00:00 10,6 10,1 10,7 13,2 15,6 18,3 9 5 20 11 ESE 1015,1 3,1 0 0,4
23.09.2018 03:00:00 10,6 10,0 10,6 13,3 15,7 18,4 9 5 13 7 ESE 1016,5 2,6 0 0,3
23.09.2018 02:00:00 10,7 9,9 10,6 13,3 15,8 18,4 8 4 22 12 SSE 1017,3 5 0 0,2
23.09.2018 01:00:00 10,6 9,9 10,5 13,5 15,9 18,4 5 3 9 5 SSE 1018,0 8 0 0,5
23.09.2018 00:00:00 10,5 9,8 10,4 13,6 16,0 18,4 6 3 10 5 ESE 1018,9 7 0 0,3
22.09.2018 23:00:00 10,6 10,0 10,6 13,7 16,1 18,4 5 3 8 5 SE 1019,6 9 0 0,1
22.09.2018 22:00:00 10,5 9,5 10,3 13,9 16,3 18,4 2 1 6 4 S 1020,0 7 0 0,8
22.09.2018 21:00:00 10,4 9,2 10,1 14,0 16,4 18,4 4 2 9 5 SSW 1020,2 15 0 0,1
22.09.2018 20:00:00 10,6 8,8 10,0 14,4 16,6 18,4 5 3 13 7 SW 1020,2 21 0 0,5
22.09.2018 19:00:00 11,4 8,9 10,6 14,9 16,7 18,4 5 3 12 6 WSW 1020,3 12 0 0,0
22.09.2018 18:00:00 11,5 9,0 10,9 15,4 16,8 18,4 7 4 22 12 WNW 1020,5 52 0 0,2
22.09.2018 17:00:00 11,8 9,2 11,2 15,9 16,8 18,4 14 7 44 24 WNW 1020,6 9 0 0,3
22.09.2018 16:00:00 15,0 7,6 15,1 17,1 16,7 18,5 6 3 14 7 NW 1019,6 53 0 0,0
22.09.2018 15:00:00 14,1 7,4 13,0 16,8 16,5 18,5 11 6 33 18 WNW 1020,1 38 0 0,1
22.09.2018 14:00:00 16,5 6,0 17,8 18,1 16,3 18,5 9 5 28 15 W 1020,1 62 1 0,0
22.09.2018 13:00:00 16,0 6,0 17,1 17,0 16,0 18,5 10 5 20 11 WSW 1020,7 57 0 0,0
22.09.2018 12:00:00 15,0 6,1 16,1 17,3 15,7 18,5 8 4 20 11 WSW 1021,4 61 29 0,0
22.09.2018 11:00:00 14,5 6,4 16,0 15,9 15,5 18,5 10 5 23 12 SW 1021,8 51 51 0,0
22.09.2018 10:00:00 12,6 6,6 13,3 13,7 15,4 18,5 13 7 22 12 SSW 1021,9 46 7 0,0
22.09.2018 09:00:00 11,3 6,6 11,0 12,7 15,5 18,5 12 7 22 12 SSW 1021,4 47 0 0,0
22.09.2018 08:00:00 10,6 6,2 9,5 12,3 15,7 18,5 13 7 20 11 SSW 1021,6 46 0 0,0
22.09.2018 07:00:00 10,8 6,1 9,9 12,4 15,8 18,5 10 5 21 11 SW 1020,9 44 0 0,0
22.09.2018 06:00:00 11,2 6,1 10,1 12,6 16,0 18,5 12 6 20 11 SW 1020,5 48 0 0,0
22.09.2018 05:00:00 11,6 6,1 10,7 12,6 16,1 18,5 9 5 19 10 SW 1020,5 49 0 0,0
22.09.2018 04:00:00 11,8 5,9 9,9 12,7 16,3 18,5 8 4 24 13 WSW 1019,9 46 0 0,0
22.09.2018 03:00:00 12,3 5,9 10,8 12,9 16,5 18,5 10 5 27 14 W 1019,3 46 0 0,0
22.09.2018 02:00:00 12,4 5,4 11,1 13,1 16,7 18,5 9 5 25 13 WSW 1018,8 50 0 0,0
22.09.2018 01:00:00 12,8 4,8 11,6 13,4 17,0 18,5 11 6 31 17 WSW 1018,5 53 0 0,0
22.09.2018 00:00:00 13,1 4,6 11,3 13,6 17,2 18,5 11 6 28 15 WSW 1017,8 52 0 0,0
21.09.2018 23:00:00 13,3 4,3 11,7 13,9 17,4 18,5 10 6 30 16 WSW 1017,3 60 0 0,0
21.09.2018 22:00:00 13,6 3,6 11,9 14,2 17,7 18,5 11 6 31 17 WSW 1016,4 70 0 0,0
21.09.2018 21:00:00 13,8 4,1 12,1 14,7 18,0 18,5 10 6 24 13 SW 1015,3 70 0 0,0
21.09.2018 20:00:00 14,4 3,8 12,9 15,3 18,2 18,5 9 5 34 18 WSW 1014,2 70 17 0,0
21.09.2018 19:00:00 15,0 3,4 13,9 16,2 18,3 18,5 18 10 47 26 W 1013,1 70 60 0,0
21.09.2018 18:00:00 15,8 4,1 15,7 17,1 18,4 18,5 21 12 53 28 W 1012,3 54 18 0,0
21.09.2018 17:00:00 15,5 5,5 15,4 17,2 18,5 18,5 22 12 45 24 W 1011,7 66 0 0,0
21.09.2018 16:00:00 15,4 5,9 15,4 17,4 18,6 18,5 22 12 54 29 WNW 1011,0 70 0 0,0
21.09.2018 15:00:00 16,2 8,2 15,8 17,7 18,7 18,5 16 9 62 34 W 1009,7 42 0 0,0
21.09.2018 14:00:00 14,7 9,0 13,9 17,1 18,8 18,5 5 3 22 12 SW 1009,4 47 0 0,0
21.09.2018 13:00:00 13,2 9,9 12,3 17,5 18,9 18,5 10 5 47 25 W 1009,3 51 0 0,5
21.09.2018 12:00:00 15,2 12,3 15,3 18,9 18,9 18,5 26 14 53 28 WNW 1008,3 16 0 0,0
21.09.2018 11:00:00 21,2 11,5 21,0 18,9 18,9 18,5 23 13 44 24 SSW 1006,3 56 0 0,0
21.09.2018 10:00:00 21,0 10,9 20,5 18,5 18,9 18,5 23 12 54 29 SSW 1006,0 51 0 0,0
21.09.2018 09:00:00 21,3 13,1 20,5 18,3 18,9 18,4 29 16 53 29 SSW 1006,0 34 0 0,0
21.09.2018 08:00:00 21,3 12,9 20,2 17,9 19,0 18,4 25 14 45 24 SSW 1005,8 33 0 0,0
21.09.2018 07:00:00 20,5 12,1 19,2 17,6 19,1 18,4 15 8 27 15 S 1006,2 39 0 0,0
21.09.2018 06:00:00 19,0 12,6 17,1 17,5 19,2 18,4 9 5 16 9 ESE 1007,1 41 0 0,0
21.09.2018 05:00:00 19,8 12,5 16,6 17,6 19,4 18,4 10 5 15 8 SSE 1007,8 39 0 0,0
21.09.2018 04:00:00 20,1 12,5 17,7 17,9 19,5 18,4 9 5 23 12 SSE 1008,8 41 0 0,0
21.09.2018 03:00:00 21,0 12,7 18,9 18,0 19,7 18,4 14 8 26 14 S 1009,5 44 0 0,0
21.09.2018 02:00:00 19,9 12,3 16,5 17,9 20,0 18,4 12 6 18 10 SSE 1010,0 41 0 0,0
21.09.2018 01:00:00 18,7 11,4 15,0 18,3 20,2 18,4 9 5 16 9 SE 1011,0 45 0 0,0
21.09.2018 00:00:00 19,6 11,3 15,8 18,8 20,5 18,4 10 5 18 10 SSE 1011,7 49 0 0,0
20.09.2018 23:00:00 22,0 10,6 19,8 19,5 20,8 18,4 13 7 25 13 S 1012,1 47 0 0,0
20.09.2018 22:00:00 22,2 10,3 20,2 19,9 21,0 18,4 15 8 28 15 S 1012,7 54 0 0,0
20.09.2018 21:00:00 22,3 9,5 19,4 20,6 21,3 18,4 11 6 22 12 S 1013,3 56 0 0,0
20.09.2018 20:00:00 22,7 8,9 19,4 21,7 21,5 18,4 10 6 21 11 S 1013,5 42 0 0,0
20.09.2018 19:00:00 24,6 9,0 22,7 23,1 21,5 18,4 12 7 22 12 SSW 1013,7 61 44 0,0
20.09.2018 18:00:00 26,2 9,1 25,8 25,0 21,4 18,4 13 7 26 14 SSW 1014,1 59 60 0,0
20.09.2018 17:00:00 27,2 9,7 28,3 26,1 21,0 18,4 15 8 34 18 SSW 1014,7 38 60 0,0
20.09.2018 16:00:00 26,5 10,7 28,4 26,7 20,6 18,4 16 9 36 20 S 1015,5 40 60 0,0
20.09.2018 15:00:00 26,3 11,4 28,7 26,7 20,0 18,4 13 7 29 16 SSW 1016,3 27 60 0,0
20.09.2018 14:00:00 26,2 11,9 29,1 26,1 19,4 18,4 18 10 36 19 SSW 1016,8 32 59 0,0
20.09.2018 13:00:00 24,9 12,6 28,3 25,2 18,8 18,4 14 8 33 18 S 1017,5 35 59 0,0
20.09.2018 12:00:00 23,4 12,7 26,0 23,0 18,3 18,4 19 11 32 18 SSW 1018,1 35 60 0,0
20.09.2018 11:00:00 21,7 12,8 23,3 20,8 17,9 18,4 15 8 25 14 SSW 1018,7 32 55 0,0
20.09.2018 10:00:00 19,8 12,9 21,0 18,0 17,8 18,4 12 6 24 13 SSW 1018,7 34 60 0,0
20.09.2018 09:00:00 17,8 12,4 17,9 15,8 17,9 18,4 14 8 23 12 SSW 1018,8 26 57 0,0
20.09.2018 08:00:00 16,3 12,3 14,7 15,4 18,1 18,4 11 6 24 13 SSW 1018,8 30 6 0,0
20.09.2018 07:00:00 15,9 12,4 13,9 15,4 18,3 18,4 12 6 20 11 SSW 1018,8 28 0 0,0
20.09.2018 06:00:00 15,7 12,6 13,8 15,5 18,5 18,4 11 6 16 9 SSW 1018,6 26 0 0,0
20.09.2018 05:00:00 16,2 12,5 13,4 15,7 18,8 18,4 9 5 14 7 SSW 1018,9 28 0 0,0

tt = temperature
td = dewpoint
tt 5cm = temperature 5cm
tt -5cm = temperature -5cm
tt -20cm = temperature -20cm
tt -100cm = temperature -100cm
ff = wind speed
fx = gusts
dd = wind direction
ppp = reduced air pressure
vv = visibility
sd = sunshine duration
rr = precipitation

Next stations